Location: Ústí nad Labem
(50.6611°N, 14.0531°E)
Time: 12:13:28
(UTC+02:00)

Envisat - Pass Details

Date: 29 February 2024
Orbit: 762 x 764 km, 98.3° (Epoch: 21 April)

Event Time Altitude Azimuth Distance (km) Brightness Sun altitude
Rises 03:36:35 0° 15° (NNE) 3,245 6.8 -30.5°
Reaches altitude 10° 03:38:55 10° 16° (NNE) 2,314 6.0 -30.2°
Enters shadow 03:43:06 60° 32° (NNE) 879 3.4 -29.6°
